[[{"header":{"parameterUnit":"m.s-1","parameterCategory":1,"la1":30.2991,"la2":30.254,"lo1":-89.0895,"lo2":-89.0444,"dy":0.0017,"dx":0.0017,"nx":28,"ny":28,"refTime":"2024-03-13T09:00:00:Z","depth":0,"parameterNumber":2,"parameterNumberName":"U-component_of_WINDS"},"data":[0,0,0,0,0,0,0,0,0,0,0,0,0,0,0,0,0,0,0,0,0,0,0,0,0,0,0,0,0,0,0,0,0,0,0,0,0,0,0,0,0,0,0,0,0,0,0,0,0,0,0,0,0,0,0,0,0,0,-6.1201,-6.1202,0,-6.1261,-6.1262,-6.1262,-6.1189,-6.1186,-6.1184,-6.1181,-6.1238,-6.1242,-6.1246,0,0,0,0,0,0,0,0,0,0,0,0,0,-6.102,-6.1024,-6.1201,-6.1202,-6.1203,-6.1261,-6.1262,-6.1263,-6.119,-6.1186,-6.1183,-6.118,-6.1237,-6.1242,-6.1247,0,0,0,0,0,0,0,0,0,0,0,0,0,-6.1091,-6.1025,-6.1201,-6.1173,-6.1171,-6.1261,-6.1262,-6.1263,-6.119,-6.1186,-6.1182,-6.1178,-6.1235,-6.1241,-6.1247,-6.1365,0,0,-6.1266,-6.1268,0,0,0,0,0,0,0,0,-6.1087,-6.1098,-6.1177,-6.1175,-6.1174,-6.1214,-6.1219,-6.1297,-6.1191,-6.1183,-6.1181,-6.1176,-6.1233,-6.1239,-6.1259,-6.1368,-6.137,-6.1266,-6.127,-6.1273,-6.1274,0,0,0,0,0,0,0,-6.1082,-6.1095,-6.1225,-6.1178,-6.1176,-6.1157,-6.1162,-6.1233,-6.123,-6.1183,-6.1178,-6.1187,-6.1231,-6.1253,-6.126,-6.1371,-6.1266,-6.1271,-6.1275,-6.1278,-6.1579,-6.1583,0,0,0,0,0,0,-6.1081,-6.1091,-6.1223,-6.1226,-6.112,-6.1163,-6.117,-6.1205,-6.1229,-6.1229,-6.119,-6.1183,-6.1245,-6.1253,-6.1262,-6.1399,-6.1272,-6.1278,-6.1282,-6.1575,-6.158,-6.1585,0,0,0,0,0,0,-6.1077,-6.1094,-6.122,-6.1158,-6.1172,-6.1171,-6.1211,-6.1208,-6.123,-6.1234,-6.1232,-6.1213,-6.1242,-6.1253,-6.134,-6.14,-6.1281,-6.1286,-6.1569,-6.1576,-6.1582,-6.1678,0,0,0,0,0,0,-6.1073,-6.1093,-6.1138,-6.1159,-6.1176,-6.1299,-6.1215,-6.1212,-6.1241,-6.1232,-6.1255,-6.1255,-6.124,-6.1331,-6.1346,-6.1407,-6.1291,-6.1564,-6.1572,-6.158,-6.1669,-6.1687,-6.1702,0,0,0,0,0,-6.1066,-6.1162,-6.1141,-6.1157,-6.1233,-6.1303,-6.1312,-6.1294,-6.1246,-6.1291,-6.1294,-6.1254,-6.1393,-6.1341,-6.1357,-6.142,-6.156,-6.157,-6.158,-6.1661,-6.1683,-6.1701,0,0,0,0,0,0,-6.1146,-6.1164,-6.1141,-6.1246,-6.1274,-6.129,-6.1346,-6.1317,-6.1357,-6.1347,-6.1322,-6.1328,-6.142,-6.1429,-6.1372,-6.1535,-6.1468,-6.1482,-6.1525,-6.1546,-6.1562,-6.1555,-6.1296,0,0,0,0,0,-6.1176,-6.1233,-6.1245,-6.1337,-6.1352,-6.1348,-6.1377,-6.1361,-6.1388,-6.1398,-6.1407,-6.1434,-6.1483,-6.1515,-6.1561,-6.1672,-6.1674,-6.1723,-6.1739,-6.1753,-6.1763,-6.1821,-6.1842,-6.1617,-6.1617,-6.1617,0,0,-6.1238,-6.1255,-6.1292,-6.1353,-6.1373,-6.143,-6.1357,-6.1421,-6.1463,-6.1407,-6.1489,-6.1498,-6.1526,-6.1625,-6.1669,-6.1635,-6.1827,-6.1765,-6.1776,-6.1779,-6.1833,-6.1854,-6.1873,-6.1624,-6.1623,-6.1621,0,0,-6.138,-6.14,-6.1477,-6.1499,-6.153,-6.1527,-6.1546,-6.1568,-6.1571,-6.1654,-6.1613,-6.1662,-6.1748,-6.1769,-6.1791,-6.1944,-6.1908,-6.196,-6.2043,-6.2099,-6.2117,-6.2132,-6.2184,-6.2203,-6.1971,-6.1971,-6.1971,0,-6.1452,-6.1538,-6.1521,-6.1588,-6.1615,-6.1571,-6.1648,-6.167,-6.1713,-6.1733,-6.1696,-6.1802,-6.1818,-6.192,-6.1957,-6.1978,-6.1997,-6.1954,-6.2116,-6.2132,-6.2146,-6.2194,-6.2214,-6.1977,-6.1976,-6.1976,-6.1975,0,-6.1624,-6.1685,-6.1744,-6.1789,-6.1824,-6.1896,-6.1888,-6.1925,-6.1907,-6.1907,-6.1992,-6.201,-6.2058,-6.2082,-6.2064,-6.2182,-6.216,-6.2121,-6.2051,-6.2173,-6.2218,-6.2237,-6.1985,-6.1983,-6.1981,-6.198,0,0,-6.1813,-6.185,-6.1871,-6.1891,-6.1923,-6.1969,-6.2039,-6.2088,-6.2119,-6.2152,-6.2208,-6.2283,-6.2247,-6.2272,-6.2257,-6.2307,-6.2423,-6.2261,-6.2261,-6.2287,-6.2551,-6.2578,-6.26,-6.2402,-6.2406,-6.2409,-6.2548,0,-6.1952,-6.2075,-6.2062,-6.2177,-6.2232,-6.2192,-6.2253,-6.2279,-6.2282,-6.2328,-6.2331,-6.2383,-6.2333,-6.2347,-6.2396,-6.2399,-6.2475,-6.239,-6.2451,-6.2454,-6.2441,-6.2624,-6.2652,-6.2782,-6.2565,-6.2569,-6.2571,0,-6.213,-6.217,-6.2292,-6.2316,-6.2338,-6.2393,-6.2437,-6.2482,-6.2511,-6.2509,-6.2539,-6.2516,-6.2585,-6.2519,-6.2612,-6.2554,-6.258,-6.2586,-6.259,-6.2591,-6.2516,-6.2626,-6.2823,-6.2841,-6.2599,-6.2597,-6.2595,0,-6.2251,-6.2337,-6.242,-6.2438,-6.2469,-6.2509,-6.2523,-6.2548,-6.2578,-6.2616,-6.2635,-6.2681,-6.2705,-6.274,-6.2729,-6.2683,-6.2825,-6.2758,-6.2823,-6.2823,-6.285,-6.2848,-6.305,-6.2874,-6.2874,-6.2874,-6.2873,0,-6.2405,-6.248,-6.2474,-6.2525,-6.2608,-6.2594,-6.2675,-6.2685,-6.2708,-6.2758,-6.2728,-6.2776,-6.2761,-6.2808,-6.2801,-6.2878,-6.289,-6.2889,-6.2885,-6.2889,-6.2889,-6.2901,-6.289,-6.2879,-6.2878,-6.2877,-6.2876,0,-6.2552,-6.2552,-6.2639,-6.2663,-6.2671,-6.273,-6.2749,-6.2797,-6.2799,-6.2864,-6.2878,-6.2881,-6.2935,-6.2929,-6.2989,-6.2984,-6.3079,-6.3067,-6.3069,-6.3065,-6.3128,-6.3121,-6.3342,-6.3369,-6.318,-6.3182,-6.3184,0,-6.2648,-6.2705,-6.2735,-6.2768,-6.2786,-6.2839,-6.287,-6.2859,-6.2892,-6.293,-6.2972,-6.3024,-6.3064,-6.3152,-6.3158,-6.3204,-6.319,-6.3265,-6.3196,-6.3198,-6.3186,-6.3181,-6.3186,-6.3276,-6.3279,-6.328,-6.3282,0,-6.2817,-6.2815,-6.2861,-6.2909,-6.2947,-6.2983,-6.3016,-6.3045,-6.3037,-6.3076,-6.3131,-6.3163,-6.3226,-6.3276,-6.3321,-6.3334,-6.3306,-6.3305,-6.3321,-6.3323,-6.3321,-6.3319,-6.3101,-6.3298,-6.3296,-6.3295,-6.3294,-6.3294,-6.2938,-6.2987,-6.3016,-6.3069,-6.3093,-6.3125,-6.317,-6.3179,-6.3226,-6.3277,-6.3268,-6.333,-6.3357,-6.3414,-6.3432,-6.348,-6.3452,-6.3477,-6.3483,-6.3488,-6.3494,-6.3318,-6.3488,-6.3488,-6.3487,-6.3487,-6.3487,0,-6.3102,-6.312,-6.317,-6.3217,-6.3259,-6.3233,-6.3269,-6.3304,-6.336,-6.3389,-6.343,-6.3494,-6.3544,-6.3556,-6.3603,-6.3639,-6.3627,-6.3651,-6.3645,-6.3649,-6.3517,-6.3496,-6.3659,-6.3659,-6.3659,-6.3659,-6.3659,-6.3659,-6.3192,-6.3272,-6.3274,-6.3365,-6.3382,-6.3443,-6.3466,-6.3494,-6.3517,-6.359,-6.3632,-6.3641,-6.3662,-6.3712,-6.3756,-6.3758,-6.3775,-6.3803,-6.38,-6.3676,-6.3658,-6.3641,-6.3621,-6.3808,-6.3808,-6.3927,-6.3928,-6.3929]},{"header":{"parameterUnit":"m.s-1","parameterCategory":1,"la1":30.2991,"la2":30.254,"lo1":-89.0895,"lo2":-89.0444,"dy":0.0017,"dx":0.0017,"nx":28,"ny":28,"refTime":"2024-03-13T09:00:00:Z","depth":0,"parameterNumber":3,"parameterNumberName":"V-component_of_WINDS"},"data":[0,0,0,0,0,0,0,0,0,0,0,0,0,0,0,0,0,0,0,0,0,0,0,0,0,0,0,0,0,0,0,0,0,0,0,0,0,0,0,0,0,0,0,0,0,0,0,0,0,0,0,0,0,0,0,0,0,0,2.5671,2.5671,0,2.5672,2.5672,2.5672,2.5656,2.5656,2.5655,2.5655,2.565,2.5651,2.5651,0,0,0,0,0,0,0,0,0,0,0,0,0,2.5652,2.5652,2.5671,2.5671,2.5671,2.5672,2.5672,2.5672,2.5656,2.5656,2.5655,2.5655,2.565,2.5651,2.5651,0,0,0,0,0,0,0,0,0,0,0,0,0,2.5657,2.5652,2.5671,2.5663,2.5663,2.5672,2.5672,2.5672,2.5656,2.5656,2.5655,2.5654,2.565,2.5651,2.5651,2.5666,0,0,2.5652,2.5652,0,0,0,0,0,0,0,0,2.5657,2.5658,2.5664,2.5664,2.5663,2.5663,2.5664,2.567,2.5656,2.5658,2.5655,2.5654,2.5655,2.5655,2.5656,2.5666,2.5666,2.5652,2.5653,2.5653,2.5653,0,0,0,0,0,0,0,2.5657,2.5658,2.5671,2.5664,2.5664,2.5659,2.5659,2.5665,2.566,2.5658,2.5657,2.5658,2.5654,2.5656,2.5656,2.5666,2.5652,2.5653,2.5653,2.5653,2.5691,2.5692,0,0,0,0,0,0,2.5658,2.5657,2.5671,2.5671,2.5659,2.566,2.566,2.5664,2.566,2.5659,2.5658,2.5657,2.5656,2.5656,2.5656,2.5675,2.5653,2.5653,2.5653,2.569,2.5691,2.5692,0,0,0,0,0,0,2.5657,2.5659,2.5671,2.5664,2.5665,2.5661,2.5665,2.5664,2.5666,2.566,2.5659,2.5661,2.5655,2.5655,2.5665,2.5675,2.5653,2.5654,2.5689,2.569,2.5691,2.5713,0,0,0,0,0,0,2.5657,2.5659,2.5665,2.5664,2.5666,2.5681,2.5666,2.5665,2.5667,2.5666,2.5662,2.5661,2.5655,2.5664,2.5665,2.5675,2.5654,2.5688,2.569,2.5691,2.5711,2.5714,2.5717,0,0,0,0,0,2.5656,2.5669,2.5666,2.5667,2.5674,2.5681,2.5682,2.5676,2.5668,2.5674,2.5671,2.5661,2.5674,2.5665,2.5666,2.5676,2.5688,2.5689,2.5691,2.571,2.5714,2.5717,0,0,0,0,0,0,2.5668,2.5669,2.5665,2.5678,2.568,2.5679,2.5686,2.568,2.5683,2.5681,2.5672,2.5671,2.5682,2.568,2.5671,2.5692,2.5679,2.5681,2.5693,2.5697,2.57,2.57,2.5654,0,0,0,0,0,2.5673,2.5681,2.568,2.5692,2.5694,2.569,2.5693,2.5689,2.569,2.569,2.5687,2.5687,2.5691,2.5694,2.5697,2.5711,2.5711,2.5719,2.5722,2.5724,2.5726,2.5735,2.5739,2.5697,2.5697,2.5697,0,0,2.5681,2.5683,2.5688,2.5695,2.5696,2.5703,2.569,2.5698,2.5704,2.569,2.57,2.5698,2.5698,2.5711,2.5716,2.5709,2.5738,2.5726,2.5729,2.5729,2.5737,2.5741,2.5745,2.5699,2.5698,2.5698,0,0,2.5701,2.5703,2.5714,2.5717,2.572,2.5718,2.5721,2.5722,2.5721,2.5731,2.5722,2.5728,2.5735,2.5736,2.5737,2.5762,2.5754,2.5763,2.5779,2.5788,2.5792,2.5795,2.5804,2.5808,2.5765,2.5765,2.5765,0,2.5711,2.5724,2.572,2.573,2.5734,2.5726,2.5737,2.5739,2.5742,2.5745,2.5738,2.5749,2.5747,2.5761,2.5768,2.5769,2.5772,2.5763,2.5792,2.5795,2.5797,2.5807,2.581,2.5766,2.5766,2.5766,2.5766,0,2.5736,2.5745,2.5754,2.5761,2.5766,2.5776,2.5774,2.5779,2.5775,2.5774,2.5786,2.5785,2.5789,2.5792,2.5787,2.5806,2.5802,2.5794,2.578,2.5803,2.5811,2.5815,2.5768,2.5768,2.5767,2.5767,0,0,2.5761,2.5769,2.5772,2.5777,2.5781,2.5788,2.5798,2.5805,2.5811,2.5814,2.5823,2.5831,2.5825,2.5826,2.5821,2.583,2.5851,2.582,2.582,2.5827,2.5874,2.588,2.5885,2.5847,2.5847,2.5848,2.5874,0,2.5781,2.5802,2.5801,2.582,2.5829,2.5823,2.5832,2.5836,2.5836,2.5843,2.5842,2.5849,2.5839,2.5841,2.5849,2.5847,2.5861,2.5845,2.5854,2.5855,2.5855,2.5889,2.5895,2.592,2.5877,2.5878,2.5878,0,2.5807,2.5815,2.5836,2.5843,2.5846,2.5855,2.5863,2.587,2.5874,2.5874,2.5878,2.5873,2.5884,2.5872,2.5887,2.5876,2.588,2.5881,2.5881,2.5881,2.5868,2.589,2.5928,2.5932,2.5884,2.5883,2.5883,0,2.5824,2.584,2.5855,2.5859,2.5866,2.5873,2.5876,2.5881,2.5886,2.5893,2.5896,2.5903,2.5906,2.5912,2.5909,2.59,2.5925,2.5912,2.5924,2.5925,2.5929,2.5929,2.5968,2.5932,2.5932,2.5931,2.5931,0,2.5847,2.586,2.5864,2.5873,2.5888,2.5887,2.5901,2.5904,2.5908,2.5918,2.5912,2.5921,2.5916,2.5925,2.5922,2.5936,2.5937,2.5937,2.5936,2.5938,2.5938,2.5939,2.5938,2.5932,2.5932,2.5932,2.5932,0,2.5868,2.5871,2.5887,2.5895,2.5897,2.5908,2.5914,2.5923,2.5924,2.5936,2.5939,2.594,2.595,2.5948,2.5958,2.5956,2.5974,2.5971,2.5973,2.5972,2.5986,2.5985,2.6027,2.6033,2.5993,2.5993,2.5994,0,2.5882,2.5893,2.5903,2.591,2.5915,2.5926,2.5933,2.5933,2.594,2.5948,2.5956,2.5966,2.5974,2.599,2.5991,2.5999,2.5996,2.6011,2.5997,2.5999,2.5998,2.5997,2.5999,2.6013,2.6014,2.6014,2.6014,0,2.5907,2.591,2.592,2.5933,2.5942,2.5951,2.5959,2.5965,2.5966,2.5974,2.5986,2.5992,2.6005,2.6015,2.6024,2.6026,2.602,2.6019,2.6023,2.6024,2.6026,2.6026,2.5981,2.6018,2.6017,2.6017,2.6017,2.6017,2.5926,2.5936,2.5946,2.5959,2.5967,2.5975,2.5985,2.5989,2.6,2.6012,2.6011,2.6024,2.6031,2.6042,2.6046,2.6056,2.605,2.6055,2.6056,2.6058,2.606,2.6025,2.6057,2.6057,2.6057,2.6057,2.6057,0,2.5952,2.5959,2.5971,2.5985,2.5996,2.5993,2.6003,2.6012,2.6025,2.6032,2.6042,2.6057,2.6067,2.6071,2.6081,2.6089,2.6087,2.6092,2.6091,2.6092,2.6064,2.606,2.6093,2.6093,2.6093,2.6093,2.6093,2.6093,2.5967,2.5985,2.5989,2.6011,2.6017,2.6033,2.6039,2.6047,2.6054,2.6072,2.6082,2.6085,2.6091,2.6103,2.6113,2.6114,2.6118,2.6124,2.6124,2.6097,2.6093,2.609,2.6086,2.6125,2.6125,2.6151,2.6151,2.6151]}]]